Location: Daerah Kuala Lumpur
(3.1167°N, 101.6833°E)
Time: 16:24:02
(UTC+00:00)

SL-08 R/B - Pass Details

Date: 05 August 2024
Orbit: 945 x 993 km, 83.0° (Epoch: 19 September)

Event Time Altitude Azimuth Distance (km) Brightness Sun altitude
Rises 21:18:39 0° 354° (N) 3,672 7.7 -27.7°
Reaches altitude 10° 21:21:10 10° 353° (N) 2,719 7.0 -27.1°
Maximum altitude 21:27:24 78° 267° (W) 991 4.3 -25.7°
Enters shadow 21:32:08 18° 183° (S) 2,168 6.1 -24.5°
